Plattsburgh, NY

5:09 AM EDT on October 18, 2017 (GMT -0400)
Plattsburgh International

Weather History for KPBG - January, 2013

Change the Weather History Date:

Monday, January 7, 2013

  Actual Average Record
Temperature  
Mean Temperature 8 °F 18 °F  
Max Temperature 19 °F 28 °F 40 °F (1949)
Min Temperature -3 °F 8 °F -11 °F (2015)
Degree Days  
Heating Degree Days 57 47  
Month to date heating degree days 367 326  
Since 1 July heating degree days 3026 3212  
Cooling Degree Days 0 0  
Month to date cooling degree days 0  
Year to date cooling degree days 0  
Moisture  
Dew Point 8 °F    
Average Humidity 87    
Maximum Humidity 95    
Minimum Humidity 79    
Precipitation  
Precipitation T in - 0.61 in (1962)
Month to date precipitation 0.06  
Year to date precipitation 0.06  
Sea Level Pressure  
Sea Level Pressure 30.29 in    
Wind  
Wind Speed 6 mph (North)    
Max Wind Speed 20 mph    
Max Gust Speed 24 mph    
Visibility 9 miles    
Events Snow    
T = Trace of Precipitation, MM = Missing Value Source: NWS Daily Summary

Daily Weather History Graph

Daily Weather History Graph

Search for Another Location

Airport or City:

Trip Planner

Search our weather history database for the weather conditions in past years. The results will help you decide how hot, cold, wet, or windy it might be!

Date:

Astronomy

Jan. 07, 2013 Rise Set
Actual Time 7:30 AM EST 4:30 PM EST
Civil Twilight 6:57 AM EST 5:03 PM EST
Nautical Twilight 6:20 AM EST 5:40 PM EST
Astronomical Twilight 5:45 AM EST 6:15 PM EST
Moon 2:48 AM EST (1/7) 12:41 PM EST (1/7)
Length of Visible Light 10h 06m
Length of Day
9h 00m
Waning Crescent, 23% of the Moon is Illuminated
Jan 7
Waning Crescent
Jan 11
New
Jan 18
First Quarter
Jan 26
Full
Feb 3
Last Quarter

Hourly Weather History & Observations

Time (EST) Temp. Windchill Dew Point Humidity Pressure Visibility Wind Dir Wind Speed Gust Speed Precip Events Conditions
12:21 AM 19.4 °F 6.6 °F 15.8 °F 86% 30.04 in 3.0 mi North 12.7 mph - 0.00 in Snow Light Snow
12:53 AM 18.0 °F 2.6 °F 14.0 °F 84% 30.07 in 9.0 mi North 17.3 mph - 0.00 in Snow Light Snow
1:53 AM 18.0 °F 3.6 °F 12.9 °F 81% 30.12 in 10.0 mi North 15.0 mph - 0.00 in   Overcast
2:12 AM 17.6 °F 2.2 °F 12.2 °F 79% 30.12 in 10.0 mi North 17.3 mph - 0.00 in   Overcast
2:49 AM 17.6 °F 3.7 °F 12.2 °F 79% 30.15 in 10.0 mi North 13.8 mph - 0.00 in   Overcast
2:53 AM 18.0 °F 3.6 °F 12.9 °F 81% 30.17 in 10.0 mi North 15.0 mph - 0.00 in   Overcast
3:53 AM 17.1 °F 7.6 °F 12.9 °F 84% 30.20 in 10.0 mi NE 6.9 mph - N/A   Overcast
4:53 AM 16.0 °F 2.3 °F 10.9 °F 81% 30.24 in 10.0 mi NNE 12.7 mph - N/A   Overcast
5:53 AM 15.1 °F 1.1 °F 10.0 °F 80% 30.27 in 10.0 mi NNE 12.7 mph - N/A   Overcast
6:53 AM 15.1 °F 4.2 °F 10.0 °F 80% 30.32 in 10.0 mi North 8.1 mph - N/A   Overcast
7:53 AM 12.9 °F -0.2 °F 9.0 °F 84% 30.35 in 10.0 mi North 10.4 mph - 0.00 in   Overcast
8:53 AM 12.0 °F 0.5 °F 7.0 °F 80% 30.39 in 5.0 mi North 8.1 mph - 0.00 in Snow Light Snow
9:23 AM 10.4 °F -2.4 °F 6.8 °F 85% 30.39 in 2.5 mi North 9.2 mph - 0.00 in Snow Light Snow
9:53 AM 10.9 °F 1.4 °F 7.0 °F 84% 30.41 in 2.5 mi North 5.8 mph - 0.00 in Snow Light Snow
10:28 AM 12.2 °F 2.9 °F 6.8 °F 79% 30.40 in 4.0 mi NNW 5.8 mph - 0.00 in Snow Light Snow
10:53 AM 10.9 °F 1.4 °F 6.1 °F 81% 30.41 in 7.0 mi North 5.8 mph - 0.00 in Snow Light Snow
11:01 AM 10.4 °F 2.2 °F 6.8 °F 85% 30.39 in 9.0 mi NNW 4.6 mph - 0.00 in   Mostly Cloudy
11:09 AM 12.2 °F 6.1 °F 6.8 °F 79% 30.40 in 10.0 mi NNW 3.5 mph - 0.00 in   Mostly Cloudy
11:32 AM 12.2 °F 6.1 °F 6.8 °F 79% 30.39 in 10.0 mi NNW 3.5 mph - 0.00 in   Partly Cloudy
11:53 AM 12.0 °F 5.9 °F 6.1 °F 77% 30.40 in 10.0 mi North 3.5 mph - 0.00 in   Clear
12:53 PM 14.0 °F - 10.0 °F 84% 30.38 in 10.0 mi Calm Calm - N/A   Partly Cloudy
1:53 PM 16.0 °F - 10.9 °F 81% 30.38 in 10.0 mi Calm Calm - N/A   Clear
2:53 PM 16.0 °F 10.4 °F 10.0 °F 77% 30.38 in 10.0 mi NNW 3.5 mph - N/A   Clear
3:53 PM 16.0 °F - 10.0 °F 77% 30.37 in 10.0 mi Calm Calm - N/A   Clear
4:53 PM 12.9 °F - 9.0 °F 84% 30.36 in 10.0 mi Calm Calm - N/A   Clear
6:53 PM 6.1 °F - 3.0 °F 87% 30.33 in 10.0 mi Calm Calm - N/A   Clear
7:53 PM 3.9 °F -3.4 °F 1.0 °F 88% 30.30 in 10.0 mi West 3.5 mph - N/A   Clear
8:53 PM 1.9 °F -5.6 °F -0.9 °F 88% 30.27 in 10.0 mi WSW 3.5 mph - N/A   Clear
9:53 PM -0.9 °F - -5.1 °F 83% 30.27 in 10.0 mi Calm Calm - N/A   Clear
10:53 PM -0.9 °F -8.9 °F -5.1 °F 83% 30.25 in 10.0 mi WSW 3.5 mph - N/A   Clear
11:53 PM 5.0 °F - 3.0 °F 92% 30.22 in 10.0 mi Calm Calm - N/A   Clear